Hourly Weather Bolshie Nyrsi

Today, 20 June, Sunday

Time Temperature Precipitation Wind Pressure Humidity
00:00 +19°C° 0 mm 5 mps 755 mmHg 88%
01:00 +19°C° 0 mm 4 mps 755 mmHg 89%
02:00 +18°C° 0 mm 4 mps 755 mmHg 90%
03:00 +18°C° 0 mm 4 mps 755 mmHg 91%
04:00 +19°C° 0 mm 4 mps 755 mmHg 88%
05:00 +20°C° 0 mm 3 mps 755 mmHg 84%
06:00 +21°C° 0 mm 3 mps 756 mmHg 80%
07:00 +22°C° 0 mm 3 mps 756 mmHg 76%
08:00 +25°C° 0 mm 3 mps 756 mmHg 71%
09:00 +26°C° 0 mm 3 mps 756 mmHg 66%
10:00 +27°C° 0 mm 3 mps 756 mmHg 64%
11:00 +28°C° 0 mm 3 mps 756 mmHg 61%
12:00 +29°C° 0 mm 3 mps 756 mmHg 58%
13:00 +29°C° 0 mm 3 mps 756 mmHg 60%
14:00 +28°C° 0 mm 3 mps 756 mmHg 61%
15:00 +28°C° 0 mm 3 mps 756 mmHg 63%
16:00 +28°C° 0 mm 3 mps 756 mmHg 66%
17:00 +27°C° 0 mm 3 mps 756 mmHg 70%
18:00 +26°C° 0 mm 3 mps 756 mmHg 73%
19:00 +25°C° 0 mm 3 mps 756 mmHg 73%
20:00 +23°C° 0 mm 2 mps 757 mmHg 73%
21:00 +21°C° 0 mm 2 mps 757 mmHg 74%
22:00 +21°C° 0 mm 2 mps 757 mmHg 70%
23:00 +20°C° 0 mm 3 mps 757 mmHg 67%

Tomorrow, 21 June, Monday

Time Temperature Precipitation Wind Pressure Humidity
00:00 +20°C° 0 mm 3 mps 757 mmHg 63%
01:00 +20°C° 0.1 mm 3 mps 757 mmHg 65%
02:00 +19°C° 0.1 mm 2 mps 757 mmHg 66%
03:00 +19°C° 0.1 mm 2 mps 757 mmHg 67%
04:00 +20°C° 0.2 mm 2 mps 757 mmHg 72%
05:00 +20°C° 0.2 mm 2 mps 757 mmHg 77%
06:00 +21°C° 0.2 mm 2 mps 757 mmHg 83%
07:00 +24°C° 0.1 mm 2 mps 757 mmHg 79%
08:00 +25°C° 0.1 mm 2 mps 757 mmHg 75%
09:00 +27°C° 0.1 mm 3 mps 757 mmHg 71%
10:00 +28°C° 0.3 mm 3 mps 757 mmHg 66%
11:00 +29°C° 0.3 mm 3 mps 757 mmHg 61%
12:00 +29°C° 0.3 mm 4 mps 757 mmHg 56%
13:00 +30°C° 0 mm 4 mps 757 mmHg 57%
14:00 +30°C° 0 mm 4 mps 757 mmHg 57%
15:00 +30°C° 0 mm 4 mps 756 mmHg 57%
16:00 +29°C° 0.1 mm 4 mps 756 mmHg 62%
17:00 +28°C° 0.1 mm 3 mps 756 mmHg 68%
18:00 +27°C° 0.1 mm 3 mps 756 mmHg 73%
19:00 +26°C° 0 mm 3 mps 756 mmHg 76%
20:00 +25°C° 0 mm 3 mps 756 mmHg 78%
21:00 +24°C° 0 mm 3 mps 756 mmHg 80%
22:00 +22°C° 0 mm 3 mps 756 mmHg 82%
23:00 +22°C° 0 mm 3 mps 756 mmHg 84%

Day after tomorrow, 22 June, Tuesday

Time Temperature Precipitation Wind Pressure Humidity
00:00 +21°C° 0 mm 3 mps 756 mmHg 86%
01:00 +21°C° 0 mm 3 mps 756 mmHg 88%
02:00 +21°C° 0 mm 3 mps 756 mmHg 90%
03:00 +20°C° 0 mm 2 mps 756 mmHg 92%
04:00 +21°C° 0 mm 3 mps 756 mmHg 89%
05:00 +22°C° 0 mm 3 mps 757 mmHg 86%
06:00 +24°C° 0 mm 3 mps 757 mmHg 83%
07:00 +26°C° 0 mm 3 mps 757 mmHg 76%
08:00 +27°C° 0 mm 3 mps 757 mmHg 70%
09:00 +29°C° 0 mm 4 mps 757 mmHg 63%
10:00 +29°C° 0 mm 4 mps 757 mmHg 60%
11:00 +30°C° 0 mm 4 mps 757 mmHg 56%
12:00 +32°C° 0 mm 4 mps 757 mmHg 53%
13:00 +32°C° 0 mm 4 mps 757 mmHg 52%
14:00 +31°C° 0 mm 3 mps 756 mmHg 51%
15:00 +33°C° 0 mm 3 mps 756 mmHg 50%
16:00 +31°C° 0 mm 3 mps 756 mmHg 56%
17:00 +30°C° 0 mm 3 mps 756 mmHg 62%
18:00 +29°C° 0 mm 3 mps 756 mmHg 69%
19:00 +27°C° 0 mm 3 mps 756 mmHg 72%
20:00 +26°C° 0 mm 3 mps 756 mmHg 76%
21:00 +24°C° 0 mm 3 mps 756 mmHg 80%
22:00 +24°C° 0 mm 3 mps 756 mmHg 81%
23:00 +22°C° 0 mm 3 mps 756 mmHg 83%

23 June, Wednesday

Time Temperature Precipitation Wind Pressure Humidity
00:00 +22°C° 0 mm 3 mps 756 mmHg 84%
01:00 +21°C° 0 mm 3 mps 756 mmHg 85%
02:00 +21°C° 0 mm 3 mps 756 mmHg 87%
03:00 +20°C° 0 mm 3 mps 756 mmHg 88%
04:00 +22°C° 0 mm 3 mps 756 mmHg 85%
05:00 +24°C° 0 mm 3 mps 756 mmHg 81%
06:00 +25°C° 0 mm 3 mps 756 mmHg 78%
07:00 +26°C° 0 mm 3 mps 756 mmHg 72%
08:00 +27°C° 0 mm 3 mps 756 mmHg 67%
09:00 +29°C° 0 mm 4 mps 756 mmHg 61%
10:00 +29°C° 0 mm 4 mps 755 mmHg 57%
11:00 +30°C° 0 mm 4 mps 755 mmHg 54%
12:00 +32°C° 0 mm 4 mps 755 mmHg 50%
13:00 +32°C° 0 mm 4 mps 755 mmHg 49%
14:00 +33°C° 0 mm 4 mps 755 mmHg 49%
15:00 +33°C° 0 mm 3 mps 755 mmHg 48%
16:00 +31°C° 0 mm 3 mps 755 mmHg 53%
17:00 +30°C° 0 mm 2 mps 754 mmHg 59%
18:00 +30°C° 0 mm 2 mps 754 mmHg 64%
19:00 +28°C° 0 mm 2 mps 754 mmHg 69%
20:00 +26°C° 0 mm 2 mps 754 mmHg 73%
21:00 +25°C° 0 mm 2 mps 754 mmHg 78%
22:00 +24°C° 0.2 mm 2 mps 754 mmHg 81%
23:00 +23°C° 0.2 mm 2 mps 754 mmHg 83%

24 June, Thursday

Time Temperature Precipitation Wind Pressure Humidity
00:00 +21°C° 0.2 mm 2 mps 754 mmHg 86%
01:00 +21°C° 0.2 mm 2 mps 754 mmHg 87%
02:00 +20°C° 0.2 mm 2 mps 754 mmHg 88%
03:00 +20°C° 0.2 mm 2 mps 754 mmHg 89%
04:00 +21°C° 0.3 mm 2 mps 754 mmHg 86%
05:00 +23°C° 0.3 mm 1 mps 754 mmHg 84%
06:00 +24°C° 0.3 mm 1 mps 754 mmHg 81%
07:00 +25°C° 0 mm 1 mps 754 mmHg 77%
08:00 +26°C° 0 mm 1 mps 754 mmHg 72%
09:00 +28°C° 0 mm 1 mps 754 mmHg 67%
10:00 +28°C° 0.2 mm 1 mps 754 mmHg 64%
11:00 +29°C° 0.2 mm 1 mps 754 mmHg 62%
12:00 +30°C° 0.2 mm 1 mps 755 mmHg 59%
13:00 +30°C° 0.6 mm 1 mps 755 mmHg 59%
14:00 +30°C° 0.6 mm 1 mps 754 mmHg 59%
15:00 +30°C° 0.6 mm 1 mps 754 mmHg 59%
16:00 +29°C° 0.4 mm 2 mps 754 mmHg 66%
17:00 +28°C° 0.4 mm 3 mps 754 mmHg 74%
18:00 +26°C° 0.4 mm 4 mps 754 mmHg 81%
19:00 +25°C° 0.3 mm 3 mps 754 mmHg 84%
20:00 +24°C° 0.3 mm 3 mps 754 mmHg 88%
21:00 +23°C° 0.3 mm 2 mps 755 mmHg 91%
22:00 +21°C° 0.2 mm 2 mps 755 mmHg 91%
23:00 +20°C° 0.2 mm 2 mps 755 mmHg 91%

25 June, Friday

Time Temperature Precipitation Wind Pressure Humidity
00:00 +20°C° 0.2 mm 2 mps 755 mmHg 91%
01:00 +20°C° 0 mm 2 mps 755 mmHg 92%
02:00 +19°C° 0 mm 2 mps 754 mmHg 92%
03:00 +19°C° 0 mm 2 mps 754 mmHg 93%
04:00 +20°C° 0 mm 2 mps 754 mmHg 91%
05:00 +21°C° 0 mm 2 mps 754 mmHg 89%
06:00 +23°C° 0 mm 2 mps 754 mmHg 87%
07:00 +24°C° 0 mm 2 mps 754 mmHg 81%
08:00 +26°C° 0 mm 2 mps 754 mmHg 76%
09:00 +27°C° 0 mm 1 mps 754 mmHg 70%
10:00 +28°C° 0 mm 2 mps 754 mmHg 66%
11:00 +29°C° 0 mm 2 mps 754 mmHg 63%
12:00 +30°C° 0 mm 2 mps 754 mmHg 59%
13:00 +30°C° 0.1 mm 2 mps 754 mmHg 58%
14:00 +31°C° 0.1 mm 2 mps 754 mmHg 57%
15:00 +31°C° 0.1 mm 2 mps 753 mmHg 56%
16:00 +31°C° 0.1 mm 2 mps 753 mmHg 60%
17:00 +31°C° 0.1 mm 1 mps 752 mmHg 65%
18:00 +30°C° 0.1 mm 1 mps 752 mmHg 69%
19:00 +28°C° 0.3 mm 1 mps 752 mmHg 74%
20:00 +26°C° 0.3 mm 1 mps 752 mmHg 79%
21:00 +24°C° 0.3 mm 2 mps 752 mmHg 84%
22:00 +24°C° 0.7 mm 2 mps 752 mmHg 87%
23:00 +23°C° 0.7 mm 2 mps 752 mmHg 89%
Show more